TimeMDT,TemperatureF,Dew PointF,Humidity,Sea Level PressureIn,VisibilityMPH,Wind Direction,Wind SpeedMPH,Gust SpeedMPH,PrecipitationIn,Events,Conditions,WindDirDegrees,DateUTC
12:53 AM,52.0,41.0,66,30.24,10.0,ESE,6.9,-,N/A,,Clear,120,2012-10-14 06:53:00
1:53 AM,50.0,41.0,71,30.25,10.0,Calm,Calm,-,N/A,,Clear,0,2012-10-14 07:53:00
2:53 AM,51.1,41.0,68,30.25,2.5,SE,8.1,-,N/A,,Partly Cloudy,130,2012-10-14 08:53:00
3:06 AM,51.8,41.0,67,30.28,10.0,ESE,6.9,-,N/A,,Partly Cloudy,120,2012-10-14 09:06:00
3:53 AM,51.1,41.0,68,30.23,10.0,ESE,6.9,-,N/A,,Clear,120,2012-10-14 09:53:00
4:53 AM,50.0,41.0,71,30.23,10.0,ESE,9.2,-,N/A,,Clear,120,2012-10-14 10:53:00
5:53 AM,51.1,39.9,66,30.23,10.0,SE,9.2,-,N/A,,Clear,130,2012-10-14 11:53:00
6:53 AM,50.0,39.9,68,30.24,10.0,ESE,6.9,-,N/A,,Clear,120,2012-10-14 12:53:00
7:53 AM,51.1,39.9,66,30.24,10.0,ESE,10.4,-,N/A,,Clear,120,2012-10-14 13:53:00
8:53 AM,53.1,39.9,61,30.25,10.0,SE,9.2,-,N/A,,Clear,130,2012-10-14 14:53:00
9:53 AM,57.0,39.9,53,30.25,10.0,ESE,8.1,-,N/A,,Clear,110,2012-10-14 15:53:00
10:53 AM,64.0,39.9,41,30.24,10.0,ESE,10.4,-,N/A,,Clear,120,2012-10-14 16:53:00
11:53 AM,68.0,39.9,36,30.21,10.0,ESE,8.1,-,N/A,,Clear,120,2012-10-14 17:53:00
12:53 PM,72.0,39.9,31,30.18,10.0,ESE,13.8,-,N/A,,Clear,120,2012-10-14 18:53:00
1:53 PM,73.9,39.0,28,30.16,10.0,ESE,11.5,-,N/A,,Clear,120,2012-10-14 19:53:00
2:53 PM,75.9,37.9,25,30.11,10.0,SE,13.8,21.9,N/A,,Clear,140,2012-10-14 20:53:00
3:53 PM,77.0,37.0,24,30.08,10.0,SSE,10.4,-,N/A,,Clear,150,2012-10-14 21:53:00
4:53 PM,77.0,36.0,23,30.06,10.0,SE,9.2,-,N/A,,Clear,140,2012-10-14 22:53:00
5:53 PM,75.9,36.0,23,30.04,10.0,ESE,5.8,-,N/A,,Clear,120,2012-10-14 23:53:00
6:53 PM,73.0,36.0,26,30.03,10.0,East,4.6,-,N/A,,Clear,100,2012-10-15 00:53:00
7:53 PM,66.9,36.0,32,30.02,10.0,SE,6.9,-,N/A,,Clear,130,2012-10-15 01:53:00
8:53 PM,68.0,36.0,31,30.00,10.0,SE,10.4,-,N/A,,Clear,140,2012-10-15 02:53:00
9:53 PM,68.0,37.0,32,29.99,10.0,SE,11.5,-,N/A,,Clear,140,2012-10-15 03:53:00
10:53 PM,66.0,37.0,34,29.98,10.0,SE,9.2,-,N/A,,Clear,130,2012-10-15 04:53:00
11:53 PM,68.0,35.1,30,29.96,10.0,SE,12.7,-,N/A,,Clear,130,2012-10-15 05:53:00